Location: Geroldsau
(48.7259°N, 8.2466°E)
Time: 21:55:12
(UTC+00:00)

deb NNS O-9 - Visible Passes

Search period start: 22 January 2022 00:00
Search period end: 01 February 2022 00:00
Orbit: 724 x 796 km, 90.2° (Epoch: 22 January)

Date Brightness Start Highest point End Pass type
(mag) Time Alt. Az. Time Alt. Az. Time Alt. Az.
22 Jan ? 04:27:14 10° NE 04:30:29 17° ENE 04:33:42 10° ESE visible
22 Jan ? 06:06:00 10° N 06:10:55 66° W 06:15:47 10° SSW visible
22 Jan ? 17:23:50 10° SSE 17:28:54 58° E 17:33:55 10° N visible
22 Jan ? 19:05:19 10° SW 19:09:11 21° WNW 19:13:01 10° NNW visible
23 Jan ? 05:27:32 10° N 05:32:28 62° E 05:37:19 10° S visible
23 Jan ? 16:46:13 10° SE 16:50:39 30° ENE 16:55:03 10° NNE visible
23 Jan ? 18:25:35 10° SSW 18:30:25 39° W 18:35:13 10° NNW visible
24 Jan ? 04:49:25 10° NNE 04:53:48 31° E 04:58:08 10° SE visible
24 Jan ? 06:29:15 10° NNW 06:33:45 35° WNW 06:38:11 10° SW visible
24 Jan ? 17:46:41 10° S 17:51:52 78° W 17:56:58 10° N visible
24 Jan ? 19:30:59 10° W 19:32:38 11° WNW 19:34:16 10° NW visible
25 Jan ? 04:11:57 10° NE 04:14:58 16° ENE 04:17:56 10° ESE visible
25 Jan ? 05:50:31 10° N 05:55:27 72° W 06:00:20 10° SSW visible
25 Jan ? 17:08:28 10° SSE 17:13:28 53° E 17:18:24 10° N visible
25 Jan ? 18:49:42 10° SW 18:53:41 22° W 18:57:38 10° NNW visible
26 Jan ? 05:12:05 10° N 05:16:58 57° E 05:21:47 10° SSE visible
26 Jan ? 18:10:04 10° SSW 18:14:57 42° W 18:19:46 10° NNW visible
27 Jan ? 04:34:01 10° NNE 04:38:17 28° E 04:42:31 10° SE visible
27 Jan ? 06:13:44 10° NNW 06:18:17 38° W 06:22:48 10° SW visible
27 Jan ? 17:31:15 10° S 17:36:24 84° W 17:41:28 10° N visible
27 Jan ? 19:15:03 10° W 19:17:05 12° WNW 19:19:07 10° NW visible
28 Jan ? 03:56:41 10° NE 03:59:24 15° ENE 04:02:08 10° ESE visible
28 Jan ? 05:35:01 10° N 05:39:57 78° W 05:44:52 10° S visible
28 Jan ? 16:53:05 10° SSE 16:58:01 49° E 17:02:52 10° N visible
28 Jan ? 18:34:05 10° SW 18:38:10 24° W 18:42:13 10° NNW visible
29 Jan ? 04:56:37 10° N 05:01:27 52° E 05:06:14 10° SSE visible
29 Jan ? 17:54:33 10° SSW 17:59:27 46° W 18:04:18 10° NNW visible
30 Jan ? 04:18:36 10° NNE 04:22:45 26° E 04:26:52 10° SE visible
30 Jan ? 05:58:11 10° N 06:02:48 41° W 06:07:24 10° SSW visible
30 Jan ? 17:15:48 10° S 17:20:54 90° ESE 17:25:57 10° N visible
30 Jan ? 18:59:11 10° WSW 19:01:33 13° WNW 19:03:53 10° NW visible
31 Jan ? 03:41:25 10° NE 03:43:51 14° ENE 03:46:17 10° ESE visible
31 Jan ? 05:19:30 10° N 05:24:27 84° W 05:29:23 10° S visible
31 Jan ? 18:18:28 10° SW 18:22:38 25° W 18:26:47 10° NNW visible
